PERSEUS-M1

Last updated on Sat Aug 15 2026 00:03:44 GMT+0000 (Coordinated Universal Time)

1 40039U 14033AF 26226.57267351 .00000504 00000+0 50571-4 0 9991 2 40039 97.9666 171.6776 0012914 101.9092 258.3577 14.95788439659369
UTC large
Height (km)
Speed (km/s)
/
Latitude / Longitude
Inclination (degrees)
Orbital Period (minutes)
Azimuth
Elevation
Range (km)
Doppler Factor

Next 0 passes for location: London (51.5072 / 0.1276)

No passes found over London.
PERSEUS-M1